Regional Weather Roundup
Issued by NWS

Home | Current Version | Previous Version | Text Only | Print | Product List | Glossary On
Versions: 1 2 3 4 5 6 7 8 9 10 11 12 13 14 15 16 17 18 19 20 21 22 23 24 25 26 27 28 29 30 31 32 33 34 35 36 37 38 39 40 41 42 43 44 45 46 47 48 49 50
000
ASCA42 TJSJ 030810
RWRPR
PUERTO RICO/U.S. VIRGIN ISLANDS HOURLY WEATHER ROUNDUP
NATIONAL WEATHER SERVICE SAN JUAN PR
400 AM AST FRI JUL 03 2015

PRZ001-004-030900-
PUERTO RICO

CITY           SKY/WX    TMP DP  RH WIND       PRES   REMARKS
SAN JUAN LMM   PTCLDY    81  73  78 E14       30.06S
PONCE          PTCLDY    79  70  73 E6        30.00F
CEIBA          CLOUDY    81  73  78 E9        30.07S
$$

PRZ006-007-030900-
U.S. VIRGIN ISLANDS

CITY           SKY/WX    TMP DP  RH WIND       PRES   REMARKS
CHARLOTTE AMA  CLOUDY    82  73  74 E9        30.04S
CHRISTIANSTED  MOCLDY    81  70  69 E13       30.04S
$$

HOURLY WEATHER ROUNDUP FOR THE NEWS MEDIA

CITY           SKY/WX    TMP DP  RH WIND       PRES   REMARKS
ORLANDO        CLEAR     74  73  97 CALM      30.06F
NEW YORK       PTCLDY    68  61  78 N5        29.90S
NEWARK         PTCLDY    66  56  70 N8        29.90S
CHICAGO        CLOUDY    56  49  77 N3        29.97F
HARTFORD       MOCLDY    64  59  83 N3        29.85S
BOSTON         PTCLDY    64  54  69 NW12      29.89R
DALLAS         CLOUDY    82  71  69 S12       29.93F
PHILADELPHIA   PTCLDY    69  63  81 NW3       29.91S
LOS ANGELES    MOCLDY    64  61  90 W8        29.95S
WASHINGTON DC  CLEAR     60  59  96 CALM      29.93S FOG


USA.gov is the U.S. government's official web portal to all federal, state and local government web resources and services.